Regional Weather Roundup
Issued by NWS State College, PA

Home | Current Version | Previous Version | Text Only | Print | Product List | Glossary On
Versions: 1 2 3 4 5 6 7 8 9 10 11 12 13 14 15 16 17 18 19 20 21 22 23 24 25 26 27 28 29 30 31 32 33 34 35 36 37 38 39 40 41 42 43 44 45 46 47 48 49 50
000
ASUS41 KCTP 260710
RWRCTP

REGIONAL WEATHER ROUNDUP
NATIONAL WEATHER SERVICE STATE COLLEGE PA
300 AM EDT SUN OCT 26 2014

Note: "fair" indicates few or no clouds below 12,000 feet with no
significant weather and/or obstructions to visibility.

* = STATION THAT DOES NOT REPORT PRECIPITATION /E.G. RAIN...SNOW...ETC/
    THUNDER OR FOG.

PAZ002>004-007>009-013>016-020>023-029>032-260800-
WESTERN PENNSYLVANIA

CITY           SKY/WX    TMP DP  RH WIND       PRES   REMARKS
ERIE           CLEAR     55  39  54 NW13G20   29.76R
MEADVILLE      CLEAR     47  36  65 W6        29.76R
FRANKLIN*      CLEAR     46  32  57 W5        29.77S
NEW CASTLE       N/A     48  34  58 CALM      29.80S
BEAVER COUNTY  NOT AVBL
BUTLER*        CLEAR     52  30  43 W3        29.80S
PITTSBURGH INT CLEAR     49  32  52 W9        29.80S
PITTSBURGH     CLEAR     53  28  38 NW7       29.79S
INDIANA*       CLEAR     54  34  47 NW8       29.79S
LATROBE        CLEAR     54  34  47 W7        29.80R
WASHINGTON CO* CLEAR     50  30  46 W6        29.83S
$$

PAZ004>006-010>012-017>019-024>028-033>037-041-042-045-046-049>053-260800-
CENTRAL PENNSYLVANIA

CITY           SKY/WX    TMP DP  RH WIND       PRES   REMARKS
BRADFORD       CLEAR     46  37  71 W9        29.70S
DUBOIS         CLEAR     49  34  56 NW12      29.73R
CLEARFIELD     CLEAR     51  34  52 NW13G25   29.72S
JOHNSTOWN      PTCLDY    50  30  46 NW18G26   29.76R
ALTOONA        CLEAR     54  34  46 NW14      29.74R
STATE COLLEGE  CLEAR     54  34  46 NW20G28   29.70S
WILLIAMSPORT   PTCLDY    58  36  43 W24G33    29.63R
SELINSGROVE    CLEAR     60  38  43 W14G22    29.65R
FT INDIANTOWN  MOCLDY    62  38  40 W12G17    29.64R
CAPITAL CITY   PTCLDY    63  37  38 NW18G28   29.65R
HARRISBURG     PTCLDY    62  37  39 NW20      29.64R
YORK           PTCLDY    62  39  42 NW12G21   29.66R
$$

PAZ038>040-043-044-047-048-054-055-060>062-067>071-260800-
EASTERN PENNSYLVANIA

CITY           SKY/WX    TMP DP  RH WIND       PRES   REMARKS
SCRANTON       MOCLDY    57  39  51 N16G28    29.61R
MOUNT POCONO   PTCLDY    50  40  68 W10       29.58S
ALLENTOWN      PTCLDY    54  39  57 SW3       29.58F
QUAKERTOWN*    MOSUNNY   52  45  76 W3        29.60F
READING        PTCLDY    61  42  49 NW13G20   29.61R
LANCASTER      MOCLDY    56  48  74 W8        29.63R
COATESVILLE    PTSUNNY   57  48  72 W3        29.63S
POTTSTOWN      CLOUDY    58  46  64 SW3       29.62S
BLUE BELL      PTCLDY    61  46  59 CALM      29.60S
DOYLESTOWN     PTCLDY    56  46  69 CALM      29.59S
WILLOW GROVE   NOT AVBL
NORTH PHILA    CLOUDY    63  45  51 W7        29.61S
PHILADELPHIA   CLOUDY    60  48  64 SW6       29.61S
$$



USA.gov is the U.S. government's official web portal to all federal, state and local government web resources and services.